Simultaneous Nadir Overpasses (SNOs) Predictions

Prediction of SNOs between AQUA and NPP Satellite Orbit:

Table of predicted SNOs for the next 14.0 days since TLE Epoch: 12/17/2022
Index Date (AQUA) Time (AQUA) Lat,Lon (AQUA) SZA (AQUA ) Date (NPP) Time (NPP) Lat,Lon (NPP) SZA (NPP ) Distance(km) Time Diff (sec)
1 12/17/2022 11:14:11 79.02, -94.68 115.80 12/17/2022 11:13:06 79.02, -94.60 115.83 1.71 65
2 12/17/2022 12:03:30 -79.31, 74.85 64.60 12/17/2022 12:03:43 -79.32, 74.88 64.62 0.60 13
3 12/20/2022 02:40:09 -79.07,-145.85 64.15 12/20/2022 02:39:19 -79.07,-145.83 64.12 0.42 50
4 12/20/2022 03:29:27 79.33, 23.49 115.50 12/20/2022 03:29:56 79.33, 23.41 115.49 1.62 29
5 12/22/2022 18:06:02 79.21, 163.57 115.73 12/22/2022 18:05:28 79.21, 163.67 115.74 1.99 34
6 12/22/2022 18:55:22 -79.46, -27.07 64.62 12/22/2022 18:56:06 -79.47, -27.02 64.67 1.11 44
7 12/25/2022 09:31:58 -79.28, 112.57 64.36 12/25/2022 09:31:40 -79.29, 112.68 64.36 2.27 18
8 12/25/2022 10:21:16 79.53, -78.05 115.30 12/25/2022 10:22:17 79.53, -78.04 115.25 0.36 61
9 12/28/2022 00:57:52 79.28, 61.12 115.60 12/28/2022 00:57:52 79.28, 61.07 115.61 1.14 0
10 12/28/2022 01:44:21 -80.95, -65.36 73.84 12/28/2022 01:45:34 -80.21, -67.42 74.24 89.60 73
11 12/30/2022 15:34:26 79.11,-159.06 115.74 12/30/2022 15:33:25 79.11,-159.00 115.78 1.28 61



Historial Predications of SNOs between AQUA and NPP
